This is the latest recevied weather packets stored in our database for station/object NW0017. If no packets are shown the sender has not sent any weather packets the latest 10 day(s).
| Time | Temp. | Humidity | Pressure | Rain* | Wind** | Luminosity | Snow |
|---|---|---|---|---|---|---|---|
| 1776932486 | 33.89° C | 54% | 1003.3 hPa | 0 mm | - | 544 W/m² | - |
| 1776932426 | 33.89° C | 55% | 1003.3 hPa | 0 mm | - | 549 W/m² | - |
| 1776932366 | 33.89° C | 55% | 1003.3 hPa | 0 mm | - | 562 W/m² | - |
| 1776932306 | 33.89° C | 54% | 1003.3 hPa | 0 mm | - | 567 W/m² | - |
| 1776932246 | 33.89° C | 57% | 1003.4 hPa | 0 mm | - | 570 W/m² | - |
| 1776932186 | 33.89° C | 58% | 1003.4 hPa | 0 mm | - | 564 W/m² | - |
| 1776932126 | 33.89° C | 59% | 1003.4 hPa | 0 mm | - | 567 W/m² | - |
| 1776932085 | 33.89° C | 55% | 1003.4 hPa | 0 mm | - | 582 W/m² | - |
| 1776932066 | 33.89° C | 58% | 1003.4 hPa | 0 mm | - | 572 W/m² | - |
| 1776932006 | 33.89° C | 55% | 1003.4 hPa | 0 mm | - | 582 W/m² | - |
| 1776931946 | 33.89° C | 53% | 1003.4 hPa | 0 mm | - | 581 W/m² | - |
| 1776931886 | 33.89° C | 55% | 1003.4 hPa | 0 mm | - | 591 W/m² | - |
| 1776931827 | 33.89° C | 54% | 1003.4 hPa | 0 mm | - | 584 W/m² | - |
| 1776931766 | 34.44° C | 54% | 1003.4 hPa | 0 mm | - | 576 W/m² | - |
| 1776931706 | 33.89° C | 55% | 1003.5 hPa | 0 mm | - | 592 W/m² | - |
| 1776931646 | 33.89° C | 55% | 1003.5 hPa | 0 mm | - | 584 W/m² | - |
| 1776931586 | 33.89° C | 53% | 1003.5 hPa | 0 mm | - | 564 W/m² | - |
| 1776931527 | 33.89° C | 53% | 1003.5 hPa | 0 mm | - | 608 W/m² | - |
| 1776931467 | 33.89° C | 53% | 1003.5 hPa | 0 mm | - | 608 W/m² | - |
| 1776931406 | 33.89° C | 56% | 1003.5 hPa | 0 mm | - | 611 W/m² | - |
| 1776931346 | 33.89° C | 55% | 1003.5 hPa | 0 mm | - | 612 W/m² | - |
| 1776931287 | 33.89° C | 55% | 1003.6 hPa | 0 mm | - | 617 W/m² | - |
| 1776931227 | 33.89° C | 57% | 1003.6 hPa | 0 mm | - | 621 W/m² | - |
| 1776931166 | 34.44° C | 57% | 1003.6 hPa | 0 mm | - | 620 W/m² | - |
| 1776931106 | 33.89° C | 58% | 1003.6 hPa | 0 mm | - | 629 W/m² | - |
* Rain latest hour (hover to see other rain measurements)
** Current wind speed in m/s (hover to see current wind gust speed)